RYR926K EDDK-LPPR

Flight info

Callsign RYR926K
Flight time N/A
Altitude 36000
Route NVO2K NVO Y868 SOGRI UM617 CIV N872 MEDIL DCT KOVIN DCT NIDUV DCT KIHVI UN872 ERIGA UN741 AZFIC DCT LOTEE DCT ELTEP T328 ASPOR
Aircraft B38M/M-SADE3FGILRWY/SB1

Departure

Time 2026-04-26 14:13
Airport Cologne Bonn Airport (EDDK)

Arrival

Time N/A
Airport Francisco de Sá Carneiro Airport (LPPR)
Time Latitude Longitude Altitude Speed Heading
2026-04-26 12:39 50.87768 7.12408 153 ft 0 kts 288°
2026-04-26 13:55 50.87763 7.12429 238 ft 4 kts 289°
2026-04-26 13:56 50.87755 7.12469 238 ft 3 kts 288°
2026-04-26 13:56 50.87746 7.12501 238 ft 4 kts 310°
2026-04-26 13:56 50.87725 7.12521 236 ft 4 kts 356°
2026-04-26 13:56 50.87699 7.12515 236 ft 4 kts 17°
2026-04-26 13:57 50.87679 7.12504 237 ft 0 kts 18°
2026-04-26 14:02 50.87696 7.12513 234 ft 6 kts 18°
2026-04-26 14:02 50.87751 7.12545 238 ft 8 kts 34°
2026-04-26 14:03 50.87764 7.12586 234 ft 3 kts 61°
2026-04-26 14:03 50.87768 7.12618 234 ft 6 kts 80°
2026-04-26 14:03 50.87760 7.12710 239 ft 10 kts 126°
2026-04-26 14:03 50.87711 7.12783 235 ft 10 kts 137°
2026-04-26 14:04 50.87653 7.12866 235 ft 13 kts 137°
2026-04-26 14:04 50.87583 7.12969 235 ft 15 kts 137°
2026-04-26 14:04 50.87504 7.13082 235 ft 16 kts 137°
2026-04-26 14:04 50.87419 7.13204 235 ft 17 kts 137°
2026-04-26 14:05 50.87328 7.13337 238 ft 18 kts 137°
2026-04-26 14:05 50.87234 7.13473 237 ft 18 kts 137°
2026-04-26 14:05 50.87145 7.13602 240 ft 17 kts 137°
2026-04-26 14:05 50.87060 7.13724 244 ft 16 kts 137°
2026-04-26 14:06 50.86981 7.13840 247 ft 15 kts 137°
2026-04-26 14:06 50.86914 7.13936 253 ft 11 kts 137°
2026-04-26 14:06 50.86862 7.14011 257 ft 11 kts 137°
2026-04-26 14:06 50.86781 7.14119 257 ft 16 kts 157°
2026-04-26 14:07 50.86696 7.14192 261 ft 12 kts 136°
2026-04-26 14:07 50.86636 7.14278 264 ft 13 kts 137°
2026-04-26 14:07 50.86552 7.14400 265 ft 18 kts 137°
2026-04-26 14:07 50.86468 7.14523 270 ft 15 kts 137°
2026-04-26 14:08 50.86393 7.14632 275 ft 15 kts 137°
2026-04-26 14:08 50.86304 7.14759 280 ft 18 kts 137°
2026-04-26 14:08 50.86211 7.14895 285 ft 19 kts 137°
2026-04-26 14:08 50.86112 7.15036 292 ft 19 kts 137°
2026-04-26 14:09 50.86015 7.15179 296 ft 19 kts 137°
2026-04-26 14:09 50.85920 7.15315 297 ft 18 kts 137°
2026-04-26 14:09 50.85830 7.15446 303 ft 17 kts 137°
2026-04-26 14:09 50.85743 7.15571 304 ft 17 kts 137°
2026-04-26 14:10 50.85639 7.15721 307 ft 22 kts 138°
2026-04-26 14:10 50.85527 7.15879 311 ft 21 kts 138°
2026-04-26 14:10 50.85419 7.16040 310 ft 22 kts 137°
2026-04-26 14:10 50.85342 7.16201 312 ft 18 kts 107°
2026-04-26 14:11 50.85441 7.16503 310 ft 18 kts 19°
2026-04-26 14:11 50.85569 7.16501 310 ft 19 kts 324°
2026-04-26 14:11 50.85671 7.16351 312 ft 23 kts 317°
2026-04-26 14:12 50.85907 7.16008 306 ft 79 kts 317°
2026-04-26 14:12 50.86465 7.15200 284 ft 140 kts 317°
2026-04-26 14:12 50.87276 7.14043 318 ft 153 kts 317°
2026-04-26 14:12 50.88093 7.12860 572 ft 172 kts 316°
2026-04-26 14:13 50.90074 7.09798 2100 ft 204 kts 312°
2026-04-26 14:13 50.90860 7.07922 3138 ft 207 kts 294°
2026-04-26 14:13 50.91134 7.05688 4101 ft 211 kts 269°
2026-04-26 14:14 50.90821 7.03353 4838 ft 229 kts 252°
2026-04-26 14:14 50.90239 7.00754 4874 ft 274 kts 252°
2026-04-26 14:14 50.89579 6.97752 4760 ft 293 kts 252°
2026-04-26 14:14 50.88939 6.94801 4932 ft 273 kts 252°